Vertical_Velocity
0 1 -0 -0 -2 1 -3 -2 -2 -4 -6 -3 -6 1 -2 -3 2 -1 -6 1 -0 -0 1 -3 1 2 1 -2 -2 -1 -0 -1 6 6 1 -6 -2 -1 -0 -2 -0 1 0 0 4 3 -3 2 2 2 7 5 -1 -4
-4 -2 -3 0 -2 -4 -0 -4 -0 -3 -6 -6 -3 2 3 -0 2 -4 -1 -2 -2 1 1 2 0 -0 -1 -1 -1 -0 2 1 -0 1 0 0 -1 0 0 2 0 -4 -3 1 -3 -1 4 -3 -2 0 2 3 3 -3
-3 -3 -0 1 -2 -2 -1 -8 -4 -1 -5 -4 -5 -2 -1 -2 -3 -1 5 3 -2 2 1 1 0 -1 0 -0 0 4 -0 3 1 -3 9 -1 -0 -0 -0 -3 1 -4 3 -4 2 5 3 0 -0 0 1 2 -1 1
-1 -3 1 2 -3 -3 -0 -5 -5 -1 -4 -4 -7 -2 1 -2 -1 3 0 -1 2 -0 0 2 0 -1 -1 3 -1 0 1 1 2 -0 -2 2 2 -1 -1 -2 -0 0 2 -2 -5 1 7 3 1 -3 2 -0 -1 2
-1 -2 -1 5 -0 -2 -2 -4 -2 -1 -4 -5 -3 -1 -2 -3 1 1 3 0 -0 0 1 -2 -0 -1 -0 1 1 -4 4 6 0 2 -2 -7 -1 -2 -4 0 -10 5 3 0 1 1 3 4 2 -0 3 -0 1 -3
1 2 -6 4 1 1 2 -6 -2 -0 -2 -6 -3 -1 0 1 -2 -1 3 -3 4 -3 2 -1 1 -1 -1 0 0 -0 4 3 3 2 6 -6 -2 -3 -2 -4 1 2 -1 -0 -1 -1 1 4 1 1 -4 1 1 -0
2 -4 1 4 -2 -1 -1 -4 -4 1 -2 -4 -0 0 0 -0 1 -1 -5 -7 -0 2 3 -4 -2 -2 -0 -0 1 -2 4 4 4 3 -4 -3 -1 5 -3 -14 10 1 2 3 2 -2 -1 3 1 0 1 3 -1 -5
4 -5 -7 1 3 3 -2 -1 -4 3 -2 -5 -0 0 2 1 -3 6 2 4 4 1 -4 -1 -2 -0 -1 0 -1 -0 2 4 2 3 2 -2 1 5 -19 8 1 -1 -3 -3 1 1 2 -1 0 1 -0 -0 -2 -3
7 -4 1 1 1 2 -3 0 -4 3 -5 -5 0 2 -2 0 -1 0 4 3 -0 3 -1 -1 0 2 0 -1 -2 -1 2 2 1 1 -0 6 1 -18 1 -0 1 -1 0 -1 2 -3 1 -3 -4 -2 1 -1 0 -9
1 -3 -3 4 4 1 -5 -1 -2 2 -7 -5 -1 1 2 -1 3 1 -2 3 -0 8 -3 -6 -1 1 2 1 -1 -1 1 0 3 1 1 -3 -20 10 3 -1 2 -0 -2 -3 -1 1 -3 -5 -2 2 -1 2 1 1
-3 -5 2 -7 9 3 -5 -2 -2 1 -6 -6 -3 -1 0 8 10 9 2 -2 -3 -5 -1 1 1 2 2 2 0 -2 -1 -0 0 0 -0 -1 -2 2 2 -3 -4 -3 -2 1 0 -4 -6 4 5 4 2 1 -2 0
2 -0 2 -1 1 1 -3 -2 -2 -1 -7 -8 -3 1 3 -1 -0 -0 1 -3 1 1 0 -0 0 1 1 1 -2 -0 -1 0 0 1 -0 -2 2 1 0 -2 -2 -1 -2 -0 1 -2 -2 -1 -0 1 1 1 -0 1
-0 0 -7 6 2 1 -4 -2 -1 -2 -4 -6 -4 2 0 -1 1 1 0 -1 0 1 1 0 -1 -1 1 -0 -1 -2 -1 -1 1 1 -2 1 1 1 1 2 1 -0 -1 0 0 -0 -0 -1 -1 -0 1 -0 2 1
-0 3 -4 1 2 1 -5 -3 1 -3 -3 -4 -4 -1 2 1 0 -1 -5 -2 -0 1 2 2 -0 -2 1 -0 -1 -1 -2 -1 -1 -1 2 2 2 1 0 0 1 1 2 1 0 1 1 0 0 -1 -4 2 2 1
-5 3 2 -2 1 3 -5 -3 -0 -2 -4 -2 -2 -3 -3 1 -1 -0 0 -0 -2 0 -0 -1 2 -2 1 -1 -2 -1 -2 -2 -3 -0 1 2 3 2 1 0 1 1 1 2 3 2 2 1 0 1 -0 -1 -1 -1
-2 3 3 -5 -1 0 -4 -5 -2 -2 -4 -2 1 1 -2 -3 0 0 -1 -2 0 1 -0 -0 2 0 -1 -1 -0 -2 -2 -6 2 1 3 3 0 -1 -1 1 -0 0 1 1 2 3 3 3 3 3 4 1 1 3
3 4 3 -3 1 -0 -0 -3 -3 -4 -3 -2 -3 1 2 -0 -1 -0 0 -0 -1 1 1 -2 4 -0 3 0 -1 -2 -3 4 2 2 -0 -1 0 0 0 -1 -1 -0 1 -0 0 1 1 3 4 3 2 1 -0 3
2 5 2 -3 -1 -2 -2 -2 -3 -5 -2 -2 -1 0 1 1 -0 -1 -1 -0 1 0 4 2 -1 6 -1 1 -4 -5 3 4 1 1 2 -2 -4 -1 0 -2 -1 -1 0 1 1 1 2 1 1 2 4 3 0 -1
2 4 -0 -1 -1 -3 -1 -3 -3 -7 -4 -1 -1 -0 -1 0 -0 -0 -1 -1 1 2 3 -1 2 -3 -3 2 1 -2 -1 -2 1 -1 4 2 -1 1 0 1 -0 -1 -1 -0 1 1 -0 1 6 4 2 5 3 5
6 4 -0 -0 -2 -1 -2 -1 -1 -2 -5 -2 -1 -2 -2 -1 -0 0 -0 -1 -0 2 3 -1 -6 -5 2 3 -0 -5 -4 -6 -2 1 2 5 1 1 1 2 -0 -1 0 0 1 -0 -1 1 1 -1 8 2 5 2
8 1 -0 0 -3 -0 -0 -1 -1 -3 -6 -4 0 -2 -2 -0 1 -1 -2 0 -0 -4 -4 -2 0 4 3 4 2 -3 0 4 -1 -2 -1 -2 3 1 0 1 1 -0 0 1 2 -0 -2 -3 5 4 -1 1 3 -3
7 -0 1 -1 -3 -2 -0 -1 -0 0 -2 -6 -0 -0 -2 -0 -2 -2 -1 -1 -4 1 1 2 2 2 3 1 -1 -2 -5 -1 3 1 3 2 -1 -3 -2 1 2 5 4 4 2 3 2 0 3 2 1 1 -2 0
5 1 0 -2 -1 -2 -3 2 1 2 -2 -7 1 1 -4 -3 -2 -1 -5 -4 -0 1 -0 -1 -2 -2 -2 0 -3 -1 -4 -7 -5 0 2 6 8 0 -1 1 4 3 1 1 4 4 2 1 3 0 1 1 -1 -1
2 -2 -1 -2 1 -2 -1 -1 1 1 -3 -5 -1 -1 -4 -1 -1 -3 -7 -3 0 -2 -2 -2 -2 1 0 -4 -4 -2 -3 -5 -4 1 -5 5 11 7 -5 -2 2 2 1 -1 6 -0 -0 5 0 4 1 1 1 2
1 -3 -1 0 -3 -1 -0 -2 -0 0 -4 -0 1 -1 -3 -1 -2 -5 -4 -1 -3 -4 -3 -2 -2 -4 -4 1 -1 -2 -6 -3 -3 -2 3 -1 5 6 -4 -4 -2 3 1 -3 -3 3 2 0 5 6 1 -1 2 3
-4 0 -1 -1 -0 2 -2 -4 -3 -1 0 0 -1 -2 -2 -1 -4 -2 -4 -1 -3 -2 -2 -3 -3 -0 3 -6 -2 1 1 -6 -3 -2 9 1 3 8 10 3 4 2 2 -0 -3 3 6 5 7 2 0 0 1 3
-3 -3 -4 -1 1 0 -3 2 -2 -2 1 -1 -4 -1 1 -2 -3 -5 -2 -2 -3 -1 -2 -3 -2 -3 -2 1 -1 -2 -0 -2 -3 0 4 1 2 4 7 12 7 2 0 2 2 13 13 10 4 1 -1 -1 -0 2
-1 -4 -3 4 1 4 -3 1 -1 -2 1 -1 0 -4 -3 -4 -4 -2 -4 -2 -3 -2 -2 -2 -4 -3 -1 -2 -1 0 1 -4 -2 -1 1 2 3 5 9 9 8 5 -1 3 13 12 2 3 3 3 3 2 4 -4
-2 -1 1 2 3 -1 -4 -2 -1 -3 1 2 -2 0 -4 -3 1 -4 -2 -4 -4 -3 -2 -0 0 -5 -4 -2 -1 0 1 -1 -2 -1 -0 2 3 4 7 6 5 3 6 6 3 9 13 8 5 5 3 4 -5 -0
-1 2 -0 1 -1 -1 -2 0 0 0 -0 -2 -3 -2 -3 -2 -0 -3 -4 -3 -2 -2 -2 -3 -3 -2 -1 -1 1 -1 -2 -0 -2 -2 1 3 5 6 2 -1 3 7 4 4 5 5 0 1 -2 -5 -2 -2 2 3
-0 2 0 -0 -2 0 1 2 1 -2 -2 -1 -0 -3 -2 -8 -1 2 -1 -0 -2 -1 -2 -2 -4 -3 -1 -3 -2 0 0 -0 -3 -2 -1 -0 0 -4 -0 4 5 4 6 4 5 13 10 4 -3 -5 0 2 5 3
1 -1 0 -1 -1 2 1 -1 -3 -3 0 -1 -2 -1 -3 -6 -7 -5 5 -1 -1 -2 -2 -0 -0 -2 -2 -2 -1 -1 1 -0 -2 -2 0 2 0 5 6 5 0 -1 3 9 13 8 -0 2 6 1 3 5 4 2
1 1 1 0 -1 -2 -0 -1 -1 -3 -2 -2 -3 -1 -2 -5 -5 -2 -2 -2 -3 -2 -1 -2 -2 -2 -2 -1 -0 -0 -1 -1 -0 0 1 2 0 1 6 3 4 5 6 9 8 9 11 8 5 3 3 0 -1 1
Height
3015 3011 3003 2996 2992 2986 2979 2971 2962 2956 2953 2950 2949 2950 2952 2953 2956 2959 2961 2961 2964 2965 2967 2969 2972 2974 2975 2977 2978 2980 2981 2980 2981 2983 2985 2986 2986 2986 2986 2987 2986 2987 2987 2984 2984 2984 2979 2973 2970 2967 2965 2959 2957 2956
3011 3006 2999 2994 2988 2983 2976 2968 2960 2953 2949 2947 2945 2946 2948 2951 2954 2958 2960 2962 2963 2966 2968 2969 2971 2972 2973 2974 2976 2976 2977 2977 2977 2979 2980 2982 2983 2983 2983 2985 2983 2985 2983 2982 2981 2977 2975 2973 2970 2967 2964 2959 2955 2957
3006 3000 2995 2991 2984 2979 2972 2965 2957 2950 2945 2943 2940 2940 2943 2947 2950 2953 2957 2960 2963 2965 2967 2968 2969 2970 2971 2972 2972 2973 2973 2974 2975 2976 2978 2979 2980 2980 2981 2981 2981 2980 2979 2978 2977 2975 2973 2972 2970 2968 2965 2961 2959 2958
3002 2996 2991 2987 2981 2975 2968 2960 2952 2947 2942 2939 2936 2936 2938 2943 2946 2950 2955 2959 2963 2965 2965 2968 2968 2968 2969 2969 2969 2968 2969 2970 2972 2973 2975 2976 2977 2978 2978 2978 2977 2978 2977 2976 2974 2973 2972 2971 2971 2969 2968 2965 2963 2963
2997 2992 2988 2983 2978 2972 2965 2957 2948 2943 2940 2935 2932 2932 2935 2939 2945 2950 2954 2957 2961 2966 2965 2966 2966 2967 2966 2966 2966 2965 2965 2965 2967 2969 2971 2973 2974 2976 2975 2974 2970 2973 2972 2973 2972 2972 2971 2970 2970 2969 2968 2968 2967 2966
2991 2988 2985 2980 2976 2969 2962 2953 2945 2940 2937 2931 2928 2928 2931 2937 2943 2947 2953 2957 2959 2961 2964 2965 2965 2965 2964 2963 2963 2962 2961 2961 2963 2965 2968 2969 2971 2974 2972 2967 2967 2967 2966 2967 2968 2968 2969 2969 2969 2969 2969 2969 2968 2967
2986 2985 2982 2976 2973 2966 2959 2950 2942 2937 2933 2927 2925 2926 2930 2936 2942 2948 2953 2956 2958 2962 2964 2964 2963 2963 2962 2961 2961 2961 2960 2959 2962 2963 2964 2966 2969 2969 2966 2961 2963 2963 2964 2964 2965 2965 2966 2967 2968 2968 2968 2968 2968 2968
2982 2982 2978 2974 2970 2965 2957 2948 2940 2935 2930 2924 2923 2925 2930 2937 2943 2948 2952 2955 2959 2962 2964 2964 2963 2962 2961 2960 2960 2960 2959 2959 2959 2960 2961 2962 2964 2964 2959 2957 2956 2957 2958 2959 2960 2961 2962 2964 2964 2966 2967 2968 2968 2968
2979 2978 2974 2970 2967 2963 2956 2947 2939 2934 2930 2927 2926 2929 2934 2939 2944 2950 2952 2956 2959 2964 2962 2961 2961 2962 2961 2960 2960 2960 2959 2957 2957 2957 2958 2960 2957 2955 2954 2954 2953 2953 2954 2955 2957 2958 2959 2961 2962 2964 2966 2966 2968 2968
2975 2973 2971 2968 2964 2961 2954 2947 2941 2936 2933 2932 2932 2935 2939 2942 2947 2951 2955 2957 2958 2959 2959 2959 2960 2960 2961 2960 2959 2960 2958 2957 2955 2956 2955 2953 2948 2949 2950 2951 2952 2952 2953 2954 2955 2956 2958 2960 2961 2963 2965 2966 2968 2970
2970 2969 2968 2965 2962 2960 2954 2947 2942 2938 2935 2936 2936 2939 2942 2945 2949 2952 2954 2956 2957 2958 2957 2955 2956 2958 2959 2960 2959 2959 2958 2956 2955 2955 2953 2949 2945 2944 2943 2945 2948 2950 2951 2953 2953 2954 2956 2958 2961 2963 2964 2966 2967 2970
2964 2965 2965 2962 2960 2958 2953 2947 2943 2940 2937 2939 2939 2942 2946 2950 2951 2952 2952 2954 2953 2954 2952 2952 2953 2954 2956 2958 2958 2958 2957 2955 2953 2952 2950 2945 2945 2943 2942 2943 2946 2948 2950 2951 2953 2955 2956 2958 2959 2961 2964 2966 2967 2969
2959 2960 2961 2959 2956 2955 2952 2947 2944 2941 2940 2941 2943 2945 2947 2949 2949 2948 2948 2949 2949 2950 2950 2950 2952 2953 2954 2956 2957 2956 2955 2953 2951 2949 2946 2944 2944 2942 2942 2942 2944 2946 2948 2950 2952 2954 2956 2957 2959 2961 2963 2965 2967 2969
2955 2955 2956 2956 2953 2952 2950 2946 2943 2942 2941 2943 2944 2945 2946 2945 2945 2945 2946 2947 2948 2949 2949 2949 2950 2952 2953 2955 2955 2954 2954 2952 2949 2946 2944 2944 2943 2942 2941 2941 2942 2943 2946 2948 2950 2952 2954 2956 2957 2959 2961 2964 2966 2968
2949 2950 2951 2951 2949 2948 2947 2944 2942 2940 2940 2942 2943 2943 2941 2941 2942 2943 2945 2946 2947 2947 2948 2949 2950 2952 2952 2953 2952 2952 2951 2949 2947 2945 2945 2944 2943 2942 2941 2941 2941 2941 2943 2944 2947 2949 2951 2953 2955 2957 2958 2961 2964 2966
2945 2945 2947 2946 2944 2944 2943 2941 2940 2938 2937 2939 2938 2938 2938 2940 2940 2941 2942 2943 2944 2946 2946 2948 2948 2949 2949 2949 2947 2947 2947 2945 2945 2944 2944 2944 2943 2942 2942 2941 2941 2940 2941 2941 2943 2945 2947 2949 2952 2954 2956 2958 2961 2963
2939 2940 2942 2941 2939 2939 2939 2939 2937 2936 2935 2935 2934 2934 2935 2937 2937 2938 2939 2939 2940 2941 2943 2945 2944 2944 2943 2942 2939 2940 2940 2941 2941 2942 2942 2942 2942 2941 2940 2940 2940 2939 2938 2938 2939 2941 2943 2946 2949 2951 2953 2955 2957 2960
2933 2935 2936 2935 2935 2934 2934 2934 2934 2933 2933 2932 2931 2931 2931 2932 2933 2934 2934 2935 2936 2936 2937 2938 2938 2936 2935 2933 2934 2934 2935 2936 2936 2936 2937 2938 2938 2938 2938 2937 2937 2936 2935 2935 2935 2937 2939 2942 2945 2948 2950 2952 2956 2958
2927 2929 2930 2930 2929 2930 2928 2929 2930 2930 2930 2929 2929 2928 2927 2927 2927 2927 2927 2928 2928 2929 2931 2930 2930 2927 2927 2928 2930 2931 2931 2932 2933 2933 2932 2932 2932 2933 2934 2933 2933 2932 2932 2932 2932 2934 2936 2940 2943 2945 2947 2951 2954 2957
2922 2924 2925 2924 2924 2925 2925 2925 2925 2925 2925 2926 2925 2924 2923 2923 2922 2920 2920 2920 2921 2920 2920 2918 2919 2920 2921 2921 2923 2925 2925 2925 2926 2927 2928 2927 2927 2927 2928 2928 2929 2929 2928 2928 2929 2931 2934 2936 2938 2941 2945 2949 2952 2955
2915 2918 2919 2919 2919 2920 2921 2919 2920 2920 2921 2920 2920 2920 2919 2918 2916 2914 2913 2912 2911 2910 2909 2910 2911 2912 2912 2913 2913 2915 2915 2915 2916 2917 2920 2922 2922 2921 2921 2922 2923 2924 2924 2924 2925 2927 2930 2933 2936 2939 2942 2945 2948 2951
2907 2911 2912 2912 2914 2914 2913 2913 2914 2914 2916 2915 2915 2915 2913 2911 2909 2908 2906 2904 2902 2902 2901 2901 2901 2901 2901 2901 2901 2902 2905 2905 2905 2906 2908 2911 2913 2913 2913 2914 2915 2916 2917 2918 2920 2924 2927 2930 2933 2936 2938 2941 2944 2948
2902 2904 2906 2907 2909 2908 2908 2906 2907 2907 2909 2910 2910 2909 2908 2905 2904 2902 2900 2897 2896 2894 2893 2892 2891 2890 2890 2890 2890 2890 2891 2894 2895 2897 2899 2900 2902 2903 2905 2906 2908 2909 2911 2913 2915 2919 2922 2926 2928 2931 2934 2937 2941 2945
2896 2898 2900 2901 2901 2900 2901 2901 2901 2903 2903 2905 2904 2903 2901 2899 2897 2894 2892 2891 2889 2887 2885 2884 2882 2882 2881 2880 2879 2880 2879 2880 2882 2884 2887 2890 2892 2893 2896 2898 2901 2903 2904 2907 2911 2913 2916 2920 2923 2926 2928 2933 2938 2942
2893 2895 2895 2893 2894 2895 2895 2896 2897 2898 2898 2899 2899 2897 2895 2893 2891 2888 2885 2883 2882 2881 2879 2878 2876 2873 2872 2871 2870 2869 2868 2867 2868 2872 2874 2876 2880 2882 2885 2890 2893 2896 2898 2900 2903 2906 2909 2913 2917 2920 2924 2929 2934 2938
2885 2886 2888 2886 2887 2889 2890 2891 2892 2893 2893 2893 2893 2891 2890 2888 2885 2881 2879 2879 2878 2876 2874 2871 2868 2866 2865 2861 2860 2859 2858 2856 2856 2859 2862 2863 2865 2870 2873 2877 2882 2887 2890 2892 2896 2899 2902 2906 2910 2914 2919 2924 2929 2933
2878 2879 2880 2881 2882 2884 2885 2886 2887 2889 2888 2887 2885 2885 2884 2881 2877 2876 2875 2874 2872 2869 2866 2862 2858 2855 2854 2853 2850 2849 2847 2846 2845 2847 2849 2852 2855 2858 2861 2865 2871 2877 2881 2885 2888 2892 2896 2900 2903 2908 2914 2920 2925 2929
2871 2872 2876 2878 2877 2878 2879 2880 2881 2882 2881 2880 2879 2878 2877 2874 2873 2873 2870 2868 2865 2862 2858 2854 2849 2847 2844 2842 2840 2839 2838 2836 2835 2836 2838 2841 2844 2848 2852 2856 2861 2866 2871 2876 2880 2884 2888 2893 2898 2903 2909 2915 2919 2922
2865 2867 2869 2870 2871 2871 2872 2873 2874 2874 2875 2873 2872 2871 2869 2868 2869 2866 2864 2861 2858 2854 2850 2847 2843 2839 2835 2833 2830 2829 2828 2827 2826 2826 2828 2831 2834 2839 2843 2848 2853 2857 2861 2866 2871 2878 2883 2888 2893 2899 2905 2910 2915 2920
2859 2862 2863 2864 2864 2865 2867 2868 2868 2868 2867 2866 2866 2864 2864 2863 2862 2860 2858 2855 2851 2847 2843 2839 2835 2831 2827 2824 2822 2820 2819 2818 2817 2818 2819 2822 2825 2829 2834 2839 2844 2848 2853 2857 2862 2868 2874 2881 2886 2892 2898 2905 2911 2917
2854 2856 2857 2857 2858 2860 2861 2861 2861 2861 2861 2860 2859 2859 2858 2856 2856 2855 2852 2849 2844 2841 2837 2833 2827 2823 2820 2817 2815 2813 2811 2810 2810 2810 2811 2814 2817 2821 2826 2831 2835 2841 2846 2850 2856 2863 2869 2875 2881 2889 2895 2902 2908 2912
2849 2849 2851 2852 2853 2855 2855 2856 2856 2855 2855 2854 2854 2853 2852 2850 2849 2848 2846 2842 2839 2836 2832 2827 2823 2819 2815 2812 2809 2806 2804 2803 2803 2803 2805 2807 2811 2815 2820 2824 2829 2835 2841 2848 2856 2863 2870 2877 2882 2888 2894 2900 2904 2908
2843 2844 2846 2847 2848 2849 2851 2852 2851 2849 2849 2848 2847 2846 2845 2845 2843 2843 2841 2838 2836 2832 2828 2824 2820 2817 2813 2809 2806 2803 2800 2799 2798 2799 2800 2803 2806 2811 2816 2821 2826 2833 2841 2850 2857 2864 2870 2875 2881 2887 2892 2896 2900 2905